Location: Angwan Shehu
(11.2514°N, 7.4613°E)
Time: 15:29:58
(UTC+00:00)

Cosmos 2112 Rocket - Pass Details

Date: 14 November 2019
Orbit: 756 x 788 km, 74.1° (Epoch: 05 December)

Event Time Altitude Azimuth Distance (km) Brightness Sun altitude
Rises 17:19:24 0° 187° (S) 3,201 7.6 -4.6°
Reaches altitude 10° 17:21:46 10° 185° (S) 2,275 6.8 -5.2°
Maximum altitude 17:26:53 69° 102° (ESE) 805 4.0 -6.4°
Drops below altitude 10° 17:32:01 10° 19° (NNE) 2,277 6.1 -7.6°
Sets 17:34:23 0° 17° (NNE) 3,204 6.9 -8.1°
